Weather History for KALX - February, 2014

Change the Weather History Date:

Sunday, February 16, 2014

  Actual Average (KAUO) Record (KAUO)
Temperature  
Mean Temperature 50 °F -  
Max Temperature 70 °F - 82 °F (1989)
Min Temperature 30 °F - 15 °F (1958)
Degree Days  
Heating Degree Days 15    
Month to date heating degree days  
Since 1 July heating degree days  
Moisture  
Dew Point 30 °F    
Average Humidity 56    
Maximum Humidity 83    
Minimum Humidity 18    
Precipitation  
Precipitation 0.00 in - 2.21 in (2003)
Month to date precipitation  
Year to date precipitation  
Sea Level Pressure  
Sea Level Pressure 30.14 in    
Wind  
Wind Speed 1 mph (West)    
Max Wind Speed 10 mph    
Max Gust Speed 17 mph    
Visibility 10 miles    
Events      
T = Trace of Precipitation, MM = Missing Value Source: NWS Daily Summary

Daily Weather History Graph

Daily Weather History Graph

Search for Another Location

Airport or City:

Trip Planner

Search our weather history database for the weather conditions in past years. The results will help you decide how hot, cold, wet, or windy it might be!

Date:

Astronomy

Feb. 16, 2014 Rise Set
Actual Time 6:26 AM CST 5:30 PM CST
Civil Twilight 6:00 AM CST 5:55 PM CST
Nautical Twilight 5:32 AM CST 6:24 PM CST
Astronomical Twilight 5:03 AM CST 6:52 PM CST
Moon 7:17 PM CST (2/16) 7:02 AM CST (2/16)
Length of Visible Light 11h 54m
Length of Day
11h 03m
Full, 97% of the Moon is Illuminated
Feb 16
Full
Feb 22
Last Quarter
Mar 1
New
Mar 8
First Quarter
Mar 16
Full

Hourly Weather History & Observations

Time (CST) Temp. Dew Point Humidity Pressure Visibility Wind Dir Wind Speed Gust Speed Precip Events Conditions
12:15 AM 32.5 °F 27.9 °F 83% 30.12 in 10.0 mi Calm Calm - N/A   Clear
12:35 AM 34.3 °F 28.8 °F 80% 30.12 in 10.0 mi Calm Calm - N/A   Clear
12:55 AM 32.5 °F 27.5 °F 82% 30.12 in 10.0 mi Calm Calm - N/A   Clear
1:15 AM 31.5 °F 26.8 °F 83% 30.13 in 10.0 mi Calm Calm - N/A   Clear
1:35 AM 32.5 °F 27.5 °F 82% 30.13 in 10.0 mi Calm Calm - N/A   Clear
1:55 AM 32.4 °F 27.3 °F 82% 30.13 in 10.0 mi Calm Calm - N/A   Clear
2:15 AM 32.5 °F 27.5 °F 82% 30.13 in 10.0 mi Calm Calm - N/A   Clear
2:35 AM 30.2 °F 25.3 °F 82% 30.14 in 10.0 mi Calm Calm - N/A   Clear
2:55 AM 30.2 °F 25.7 °F 83% 30.13 in 10.0 mi Calm Calm - N/A   Clear
3:15 AM 31.5 °F 27.0 °F 83% 30.13 in 10.0 mi Calm Calm - N/A   Clear
3:35 AM 30.2 °F 25.7 °F 83% 30.13 in 10.0 mi Calm Calm - N/A   Clear
3:55 AM 30.2 °F 25.3 °F 82% 30.13 in 10.0 mi Calm Calm - N/A   Clear
4:15 AM 30.2 °F 25.5 °F 83% 30.13 in 10.0 mi Calm Calm - N/A   Clear
4:35 AM 30.2 °F 25.7 °F 83% 30.13 in 10.0 mi Calm Calm - N/A   Clear
4:55 AM 30.2 °F 25.7 °F 83% 30.13 in 10.0 mi Calm Calm - N/A   Clear
5:15 AM 30.2 °F 25.7 °F 83% 30.13 in 10.0 mi Calm Calm - N/A   Clear
5:35 AM 30.2 °F 25.7 °F 83% 30.13 in 10.0 mi Calm Calm - N/A   Clear
5:55 AM 30.2 °F 25.7 °F 83% 30.13 in 10.0 mi Calm Calm - N/A   Clear
6:15 AM 30.2 °F 25.7 °F 83% 30.13 in 10.0 mi Calm Calm - N/A   Clear
6:35 AM 30.6 °F 26.1 °F 83% 30.14 in 10.0 mi Calm Calm - N/A   Clear
6:55 AM 32.2 °F 27.3 °F 82% 30.14 in 10.0 mi Calm Calm - N/A   Clear
7:15 AM 32.5 °F 28.0 °F 83% 30.15 in 10.0 mi Calm Calm - N/A   Clear
7:35 AM 35.1 °F 30.4 °F 83% 30.15 in 10.0 mi Calm Calm - N/A   Clear
7:55 AM 37.4 °F 32.0 °F 81% 30.16 in 10.0 mi Calm Calm - N/A   Clear
8:15 AM 40.1 °F 32.0 °F 73% 30.16 in 10.0 mi Calm Calm - N/A   Clear
8:35 AM 42.8 °F 31.8 °F 65% 30.17 in 10.0 mi Calm Calm - N/A   Clear
8:55 AM 47.7 °F 32.2 °F 55% 30.16 in 10.0 mi Calm Calm - N/A   Clear
9:15 AM 50.2 °F 31.8 °F 49% 30.16 in 10.0 mi WSW 3.5 mph - N/A   Clear
9:35 AM 52.7 °F 30.6 °F 43% 30.16 in 10.0 mi Calm Calm - N/A   Clear
9:55 AM 57.2 °F 29.3 °F 35% 30.17 in 10.0 mi West 4.6 mph - N/A   Clear
10:15 AM 58.5 °F 26.6 °F 30% 30.16 in 10.0 mi West 9.2 mph - N/A   Clear
10:35 AM 60.3 °F 28.0 °F 29% 30.17 in 10.0 mi West 8.1 mph - N/A   Clear
10:55 AM 60.3 °F 27.0 °F 28% 30.16 in 10.0 mi NW 4.6 mph - N/A   Clear
11:15 AM 60.8 °F 27.7 °F 28% 30.16 in 10.0 mi West 3.5 mph - N/A   Clear
11:35 AM 62.8 °F 27.1 °F 26% 30.16 in 10.0 mi SSW 4.6 mph - N/A   Clear
11:55 AM 64.4 °F 25.5 °F 23% 30.14 in 10.0 mi WNW 8.1 mph 16.1 mph N/A   Clear
12:15 PM 65.5 °F 26.6 °F 23% 30.14 in 10.0 mi WNW 3.5 mph - N/A   Clear
12:35 PM 65.5 °F 26.1 °F 23% 30.14 in 10.0 mi WNW 5.8 mph - N/A   Clear
12:55 PM 67.5 °F 27.0 °F 22% 30.13 in 10.0 mi WSW 9.2 mph - N/A   Clear
1:15 PM 68.0 °F 26.6 °F 21% 30.12 in 10.0 mi WSW 5.8 mph 9.2 mph N/A   Clear
1:35 PM 70.7 °F 27.9 °F 20% 30.12 in 10.0 mi SW 3.5 mph 17.3 mph N/A   Clear
1:55 PM 70.7 °F 27.1 °F 20% 30.11 in 10.0 mi WNW 6.9 mph - N/A   Clear
2:15 PM 70.7 °F 26.1 °F 19% 30.11 in 10.0 mi West 9.2 mph - N/A   Clear
2:35 PM 70.7 °F 26.2 °F 19% 30.11 in 10.0 mi WSW 6.9 mph - N/A   Clear
2:55 PM 70.7 °F 25.7 °F 19% 30.11 in 10.0 mi West 6.9 mph - N/A   Clear
3:15 PM 70.7 °F 25.5 °F 18% 30.11 in 10.0 mi West 10.4 mph - N/A   Clear
3:35 PM 70.7 °F 24.8 °F 18% 30.11 in 10.0 mi West 8.1 mph - N/A   Clear
3:55 PM 70.7 °F 25.9 °F 19% 30.11 in 10.0 mi West 6.9 mph - N/A   Clear
4:15 PM 70.7 °F 25.5 °F 18% 30.11 in 10.0 mi WSW 6.9 mph - N/A   Clear
4:35 PM 70.7 °F 27.0 °F 20% 30.12 in 10.0 mi West 6.9 mph - N/A   Clear
4:55 PM 69.1 °F 27.1 °F 21% 30.12 in 10.0 mi West 6.9 mph - N/A   Clear
5:15 PM 65.8 °F 26.4 °F 23% 30.12 in 10.0 mi West 4.6 mph - N/A   Clear
5:35 PM 63.0 °F 28.0 °F 27% 30.13 in 10.0 mi Calm Calm - N/A   Clear
5:55 PM 60.6 °F 30.7 °F 32% 30.13 in 10.0 mi NW 3.5 mph - N/A   Clear
6:15 PM 57.7 °F 34.7 °F 42% 30.14 in 10.0 mi Calm Calm - N/A   Clear
6:35 PM 54.3 °F 37.0 °F 52% 30.14 in 10.0 mi Calm Calm - N/A   Clear
6:55 PM 55.4 °F 37.0 °F 50% 30.15 in 10.0 mi Calm Calm - N/A   Clear
7:15 PM 52.7 °F 39.9 °F 62% 30.15 in 10.0 mi Calm Calm - N/A   Clear
7:35 PM 51.4 °F 36.5 °F 57% 30.15 in 10.0 mi Calm Calm - N/A   Clear
7:55 PM 50.2 °F 37.0 °F 61% 30.15 in 10.0 mi Calm Calm - N/A   Clear
8:15 PM 50.2 °F 38.8 °F 65% 30.17 in 10.0 mi Calm Calm - N/A   Clear
8:35 PM 50.2 °F 39.2 °F 66% 30.16 in 10.0 mi Calm Calm - N/A   Clear
8:55 PM 47.7 °F 37.9 °F 69% 30.16 in 10.0 mi Calm Calm - N/A   Clear
9:15 PM 47.7 °F 37.8 °F 69% 30.16 in 10.0 mi Calm Calm - N/A   Clear
9:35 PM 44.4 °F 35.6 °F 71% 30.16 in 10.0 mi Calm Calm - N/A   Clear
9:55 PM 45.1 °F 36.3 °F 71% 30.15 in 10.0 mi Calm Calm - N/A   Clear
10:15 PM 43.3 °F 35.4 °F 74% 30.15 in 10.0 mi Calm Calm - N/A   Clear
10:35 PM 43.2 °F 35.8 °F 75% 30.15 in 10.0 mi Calm Calm - N/A   Clear
10:55 PM 42.8 °F 35.6 °F 76% 30.15 in 10.0 mi Calm Calm - N/A   Clear
11:15 PM 43.7 °F 36.0 °F 74% 30.14 in 10.0 mi Calm Calm - N/A   Clear
11:35 PM 42.8 °F 35.6 °F 76% 30.14 in 10.0 mi Calm Calm - N/A   Clear
11:55 PM 42.8 °F 35.6 °F 76% 30.14 in 10.0 mi Calm Calm - N/A   Clear